Hatteras, NC

2:20 PM EDT on March 29, 2017 (GMT -0400)
Mitchell

Weather History for KHSE - January, 2015

Change the Weather History Date:

Thursday, January 8, 2015

  Actual Average Record
Temperature  
Mean Temperature 24 °F 46 °F  
Max Temperature 30 °F 52 °F 73 °F (1937)
Min Temperature 18 °F 39 °F 18 °F (2015)
Degree Days  
Heating Degree Days 41 20  
Month to date heating degree days 142 153  
Since 1 July heating degree days 1005 960  
Cooling Degree Days 0 0  
Month to date cooling degree days 2 0  
Year to date cooling degree days 2 0  
Moisture  
Dew Point 12 °F    
Average Humidity 64    
Maximum Humidity 81    
Minimum Humidity 46    
Precipitation  
Precipitation 0.00 in 0.17 in 1.80 in (1912)
Month to date precipitation 0.84 1.32  
Year to date precipitation 0.84 1.32  
Snow  
Snow 0.00 in - - ()
Month to date snowfall 0.0  
Since 1 July snowfall 0.0  
Snow Depth 0.00 in    
Sea Level Pressure  
Sea Level Pressure 30.50 in    
Wind  
Wind Speed 8 mph (North)    
Max Wind Speed 17 mph    
Max Gust Speed 31 mph    
Visibility 10 miles    
Events      
T = Trace of Precipitation, MM = Missing Value Source: NWS Daily Summary

Daily Weather History Graph

Daily Weather History Graph

Search for Another Location

Airport or City:

Trip Planner

Search our weather history database for the weather conditions in past years. The results will help you decide how hot, cold, wet, or windy it might be!

Date:

Astronomy

Jan. 08, 2015 Rise Set
Actual Time 7:11 AM EST 5:06 PM EST
Civil Twilight 6:43 AM EST 5:34 PM EST
Nautical Twilight 6:12 AM EST 6:06 PM EST
Astronomical Twilight 5:41 AM EST 6:36 PM EST
Moon 8:35 PM EST (1/8) 9:03 AM EST (1/8)
Length of Visible Light 10h 51m
Length of Day
9h 55m
Waning Gibbous, 89% of the Moon is Illuminated
Jan 8
Waning Gibbous
Jan 13
Last Quarter
Jan 20
New
Jan 26
First Quarter
Feb 3
Full

Hourly Weather History & Observations

Time (EST) Temp. Windchill Dew Point Humidity Pressure Visibility Wind Dir Wind Speed Gust Speed Precip Events Conditions
12:51 AM 23.0 °F 12.4 °F 9.0 °F 55% 30.40 in 10.0 mi North 10.4 mph 24.2 mph N/A   Mostly Cloudy
1:51 AM 21.9 °F 9.8 °F 7.0 °F 53% 30.43 in 10.0 mi North 12.7 mph 31.1 mph N/A   Clear
2:51 AM 21.0 °F 6.6 °F 5.0 °F 50% 30.46 in 10.0 mi NNW 17.3 mph 28.8 mph N/A   Mostly Cloudy
3:51 AM 19.9 °F 7.9 °F 6.1 °F 55% 30.47 in 10.0 mi North 11.5 mph 21.9 mph N/A   Scattered Clouds
4:51 AM 19.0 °F 7.5 °F 6.1 °F 57% 30.49 in 10.0 mi North 10.4 mph 24.2 mph N/A   Mostly Cloudy
5:51 AM 19.0 °F 7.5 °F 3.9 °F 52% 30.51 in 10.0 mi North 10.4 mph 24.2 mph N/A   Clear
6:51 AM 18.0 °F 5.4 °F 3.9 °F 54% 30.54 in 10.0 mi North 11.5 mph 26.5 mph N/A   Clear
7:51 AM 19.0 °F 10.0 °F 7.0 °F 59% 30.57 in 10.0 mi Variable 6.9 mph 24.2 mph N/A   Clear
8:51 AM 19.9 °F 8.6 °F 8.1 °F 60% 30.59 in 10.0 mi North 10.4 mph 25.3 mph N/A   Clear
9:51 AM 21.9 °F 11.0 °F 9.0 °F 58% 30.59 in 10.0 mi North 10.4 mph 20.7 mph N/A   Clear
10:51 AM 24.1 °F 14.4 °F 10.9 °F 57% 30.57 in 10.0 mi North 9.2 mph 17.3 mph N/A   Partly Cloudy
11:10 AM 24.1 °F 13.7 °F 12.0 °F 60% 30.56 in 10.0 mi North 10.4 mph 20.7 mph N/A   Mostly Cloudy
11:51 AM 24.1 °F 12.5 °F 12.9 °F 62% 30.51 in 10.0 mi NNE 12.7 mph 23.0 mph N/A   Mostly Cloudy
12:51 PM 25.0 °F 14.2 °F 14.0 °F 63% 30.51 in 10.0 mi North 11.5 mph 21.9 mph N/A   Mostly Cloudy
1:51 PM 25.0 °F 17.1 °F 15.1 °F 66% 30.53 in 10.0 mi North 6.9 mph 17.3 mph N/A   Mostly Cloudy
2:51 PM 28.0 °F 20.8 °F 12.0 °F 51% 30.54 in 10.0 mi NNW 6.9 mph - N/A   Mostly Cloudy
3:51 PM 27.0 °F 20.5 °F 12.9 °F 56% 30.52 in 10.0 mi NNE 5.8 mph - N/A   Clear
4:51 PM 25.0 °F - 10.9 °F 55% 30.52 in 10.0 mi Calm Calm - N/A   Clear
5:51 PM 21.0 °F 16.2 °F 12.0 °F 68% 30.51 in 10.0 mi NE 3.5 mph - N/A   Clear
6:51 PM 19.9 °F 13.4 °F 12.0 °F 71% 30.51 in 10.0 mi NNE 4.6 mph - N/A   Clear
7:51 PM 21.9 °F 15.7 °F 15.1 °F 75% 30.51 in 10.0 mi North 4.6 mph - N/A   Clear
8:51 PM 21.0 °F 14.6 °F 16.0 °F 81% 30.49 in 10.0 mi NW 4.6 mph - N/A   Partly Cloudy
9:51 PM 25.0 °F 20.7 °F 19.0 °F 78% 30.46 in 10.0 mi NNW 3.5 mph - N/A   Partly Cloudy
10:51 PM 28.0 °F 20.8 °F 21.0 °F 75% 30.45 in 10.0 mi NW 6.9 mph - N/A   Mostly Cloudy
11:25 PM 28.9 °F 21.9 °F 21.9 °F 75% 30.44 in 10.0 mi NW 6.9 mph - N/A   Overcast
11:51 PM 30.0 °F 21.7 °F 23.0 °F 75% 30.44 in 10.0 mi WNW 9.2 mph - N/A   Overcast